TSO564 ENGM-UUDD

Flight info

Callsign TSO564
Flight time 2h 8m
Altitude 37000
Route MASEV Z183 LEGPO DCT MILNU DCT TEB DCT ALAMI DCT TUTVA DCT LATKA DCT DOHOR Y168 NOTAR N609 ORTOK/K0898F370 N609 LIVDA N168 BILRU BILRU3L
Aircraft B744/H-SDE3FGHIM1M2RWXY/LB1

Departure

Time 2026-05-05 18:21
Airport Oslo-Gardermoen International Airport (ENGM)

Arrival

Time 2026-05-05 20:30
Airport Domodedovo International Airport (UUDD)
Time Latitude Longitude Altitude Speed Heading
2026-05-05 17:45 60.19453 11.10359 683 ft 0 kts 196°
2026-05-05 18:05 60.19454 11.10359 683 ft 1 kts 196°
2026-05-05 18:06 60.19469 11.10368 683 ft 2 kts 192°
2026-05-05 18:06 60.19474 11.10369 683 ft 2 kts 185°
2026-05-05 18:06 60.19498 11.10364 683 ft 2 kts 160°
2026-05-05 18:06 60.19512 11.10351 683 ft 2 kts 147°
2026-05-05 18:07 60.19524 11.10332 683 ft 2 kts 146°
2026-05-05 18:07 60.19538 11.10319 683 ft 2 kts 161°
2026-05-05 18:07 60.19552 11.10311 683 ft 2 kts 169°
2026-05-05 18:07 60.19567 11.10307 683 ft 2 kts 179°
2026-05-05 18:08 60.19582 11.10308 683 ft 2 kts 188°
2026-05-05 18:08 60.19597 11.10315 683 ft 2 kts 197°
2026-05-05 18:08 60.19611 11.10324 683 ft 2 kts 197°
2026-05-05 18:08 60.19616 11.10327 684 ft 0 kts 197°
2026-05-05 18:14 60.19609 11.10324 683 ft 2 kts 184°
2026-05-05 18:14 60.19575 11.10353 683 ft 8 kts 141°
2026-05-05 18:15 60.19529 11.10477 684 ft 13 kts 110°
2026-05-05 18:15 60.19496 11.10698 684 ft 19 kts 105°
2026-05-05 18:15 60.19453 11.10996 684 ft 25 kts 105°
2026-05-05 18:15 60.19400 11.11355 683 ft 23 kts 118°
2026-05-05 18:16 60.19356 11.11396 683 ft 0 kts 187°
2026-05-05 18:16 60.19340 11.11392 683 ft 4 kts 187°
2026-05-05 18:16 60.19293 11.11376 683 ft 10 kts 194°
2026-05-05 18:16 60.19200 11.11323 683 ft 17 kts 195°
2026-05-05 18:17 60.19088 11.11258 683 ft 24 kts 196°
2026-05-05 18:17 60.18895 11.11147 683 ft 32 kts 196°
2026-05-05 18:17 60.18648 11.11004 682 ft 41 kts 196°
2026-05-05 18:17 60.18363 11.10838 682 ft 41 kts 196°
2026-05-05 18:18 60.18095 11.10684 680 ft 37 kts 195°
2026-05-05 18:18 60.17858 11.10547 680 ft 30 kts 197°
2026-05-05 18:18 60.17724 11.10526 679 ft 15 kts 127°
2026-05-05 18:18 60.17704 11.10622 679 ft 4 kts 108°
2026-05-05 18:19 60.17698 11.10655 679 ft 0 kts 108°
2026-05-05 18:19 60.17697 11.10658 679 ft 1 kts 107°
2026-05-05 18:19 60.17693 11.10715 680 ft 0 kts 89°
2026-05-05 18:19 60.17693 11.10731 680 ft 0 kts 82°
2026-05-05 18:20 60.17693 11.10732 680 ft 0 kts 81°
2026-05-05 18:20 60.17703 11.10793 680 ft 0 kts 61°
2026-05-05 18:20 60.17763 11.10889 680 ft 20 kts 17°
2026-05-05 18:20 60.18037 11.11048 681 ft 71 kts 16°
2026-05-05 18:21 60.18773 11.11465 684 ft 146 kts 15°
2026-05-05 18:21 60.19941 11.12169 885 ft 190 kts 19°
2026-05-05 18:21 60.21034 11.13718 1513 ft 191 kts 52°
2026-05-05 18:21 60.21582 11.16106 2025 ft 192 kts 80°
2026-05-05 18:22 60.21785 11.18777 2663 ft 195 kts 81°
2026-05-05 18:22 60.21975 11.21545 3184 ft 208 kts 81°
2026-05-05 18:22 60.22176 11.24492 3884 ft 212 kts 81°
2026-05-05 18:22 60.22381 11.27440 4670 ft 213 kts 80°
2026-05-05 18:23 60.22599 11.30394 5405 ft 215 kts 79°
2026-05-05 18:23 60.22876 11.33399 6092 ft 219 kts 73°
2026-05-05 18:23 60.23281 11.36386 6557 ft 228 kts 73°
2026-05-05 18:23 60.23685 11.39580 6776 ft 242 kts 73°
2026-05-05 18:24 60.24116 11.42916 6853 ft 243 kts 73°
2026-05-05 18:24 60.24536 11.46221 6909 ft 243 kts 73°
2026-05-05 18:24 60.24939 11.49564 6942 ft 247 kts 80°
2026-05-05 18:24 60.24868 11.53073 6958 ft 252 kts 104°
2026-05-05 18:25 60.24109 11.56287 6976 ft 254 kts 128°
2026-05-05 18:25 60.23730 11.57174 6977 ft 256 kts 135°
2026-05-05 18:25 60.21080 11.59868 6974 ft 263 kts 174°
2026-05-05 18:25 60.19242 11.60001 7277 ft 263 kts 181°
2026-05-05 18:26 60.17417 11.60106 7614 ft 266 kts 178°
2026-05-05 18:26 60.15901 11.60281 7976 ft 266 kts 177°
2026-05-05 18:26 60.14097 11.61089 8319 ft 271 kts 156°
2026-05-05 18:26 60.12453 11.63108 8673 ft 275 kts 144°
2026-05-05 18:27 60.10897 11.65358 8952 ft 280 kts 147°
2026-05-05 18:27 60.09217 11.67664 9168 ft 288 kts 144°
2026-05-05 18:27 60.07804 11.70563 9430 ft 294 kts 124°
2026-05-05 18:27 60.06952 11.74311 9751 ft 297 kts 104°
2026-05-05 18:28 60.07303 11.82427 10385 ft 297 kts 64°
2026-05-05 18:28 60.08236 11.86206 10614 ft 302 kts 63°
2026-05-05 18:28 60.09069 11.90142 10749 ft 312 kts 67°
2026-05-05 18:29 60.09402 11.91915 10767 ft 317 kts 68°
2026-05-05 18:29 60.10148 11.96141 10912 ft 324 kts 70°
2026-05-05 18:29 60.10861 12.00520 11242 ft 325 kts 71°
2026-05-05 18:29 60.11523 12.04882 11511 ft 328 kts 72°
2026-05-05 18:30 60.12165 12.09311 11826 ft 330 kts 73°
2026-05-05 18:30 60.12788 12.13797 12122 ft 331 kts 73°
2026-05-05 18:30 60.13385 12.18290 12430 ft 333 kts 73°
2026-05-05 18:30 60.13983 12.22834 12741 ft 335 kts 73°
2026-05-05 18:31 60.14564 12.27430 13053 ft 337 kts 75°
2026-05-05 18:31 60.15132 12.31983 13349 ft 340 kts 74°
2026-05-05 18:31 60.15713 12.36669 13634 ft 343 kts 75°
2026-05-05 18:31 60.16291 12.41305 13927 ft 346 kts 74°
2026-05-05 18:32 60.16879 12.46069 14265 ft 348 kts 75°
2026-05-05 18:32 60.17453 12.50835 14575 ft 350 kts 76°
2026-05-05 18:32 60.17682 12.55779 14816 ft 356 kts 92°
2026-05-05 18:32 60.17368 12.60718 15092 ft 358 kts 98°
2026-05-05 18:33 60.17022 12.65767 15393 ft 362 kts 97°
2026-05-05 18:33 60.16698 12.70910 15679 ft 365 kts 97°
2026-05-05 18:33 60.16368 12.76031 15926 ft 369 kts 97°
2026-05-05 18:33 60.16043 12.81191 16209 ft 372 kts 97°
2026-05-05 18:34 60.15703 12.86376 16442 ft 376 kts 97°
2026-05-05 18:34 60.15365 12.91639 16671 ft 380 kts 97°
2026-05-05 18:34 60.15023 12.97000 16927 ft 384 kts 97°
2026-05-05 18:34 60.14665 13.02368 17179 ft 387 kts 98°
2026-05-05 18:35 60.14313 13.07735 17460 ft 390 kts 97°
2026-05-05 18:35 60.13956 13.13173 17718 ft 393 kts 98°
2026-05-05 18:35 60.13586 13.18655 17932 ft 396 kts 98°
2026-05-05 18:35 60.13216 13.24238 18187 ft 400 kts 97°
2026-05-05 18:36 60.12834 13.29870 18408 ft 404 kts 98°
2026-05-05 18:36 60.12454 13.35462 18669 ft 407 kts 98°
2026-05-05 18:36 60.12066 13.41113 18880 ft 410 kts 98°
2026-05-05 18:36 60.11667 13.46906 19132 ft 413 kts 99°
2026-05-05 18:37 60.11268 13.52595 19362 ft 416 kts 98°
2026-05-05 18:37 60.10851 13.58504 19580 ft 419 kts 98°
2026-05-05 18:37 60.10435 13.64379 19783 ft 423 kts 99°
2026-05-05 18:37 60.10031 13.70110 19988 ft 427 kts 100°
2026-05-05 18:38 60.09603 13.76119 20246 ft 428 kts 101°
2026-05-05 18:38 60.09180 13.81877 20451 ft 431 kts 100°
2026-05-05 18:38 60.08742 13.87850 20666 ft 433 kts 101°
2026-05-05 18:38 60.08297 13.93936 20851 ft 437 kts 100°
2026-05-05 18:39 60.07843 13.99972 21053 ft 439 kts 101°
2026-05-05 18:39 60.07379 14.06136 21197 ft 444 kts 101°
2026-05-05 18:39 60.06932 14.12271 21413 ft 447 kts 101°
2026-05-05 18:39 60.06448 14.18516 21622 ft 448 kts 101°
2026-05-05 18:40 60.05974 14.24686 21899 ft 450 kts 101°
2026-05-05 18:40 60.05507 14.30981 22073 ft 452 kts 102°
2026-05-05 18:40 60.05038 14.37252 22309 ft 454 kts 101°
2026-05-05 18:40 60.04580 14.43633 22487 ft 459 kts 100°
2026-05-05 18:41 60.04122 14.49915 22645 ft 460 kts 103°
2026-05-05 18:41 60.03574 14.56281 22850 ft 463 kts 102°
2026-05-05 18:41 60.03067 14.62745 23066 ft 465 kts 102°
2026-05-05 18:41 60.02549 14.69220 23286 ft 466 kts 103°
2026-05-05 18:42 60.02033 14.75662 23502 ft 467 kts 104°
2026-05-05 18:42 60.01500 14.82174 23686 ft 469 kts 103°
2026-05-05 18:42 60.00966 14.88628 23871 ft 471 kts 103°
2026-05-05 18:42 60.00438 14.95077 24046 ft 474 kts 103°
2026-05-05 18:43 59.99902 15.01638 24235 ft 476 kts 104°
2026-05-05 18:43 59.99339 15.08154 24512 ft 476 kts 103°
2026-05-05 18:43 59.98799 15.14740 24733 ft 478 kts 103°
2026-05-05 18:43 59.98276 15.21339 24985 ft 478 kts 103°
2026-05-05 18:44 59.97787 15.27966 25225 ft 479 kts 101°
2026-05-05 18:44 59.97125 15.34541 25435 ft 474 kts 112°
2026-05-05 18:44 59.96097 15.40884 25693 ft 473 kts 113°
2026-05-05 18:44 59.95148 15.47212 25913 ft 477 kts 110°
2026-05-05 18:45 59.94231 15.53598 26132 ft 478 kts 111°
2026-05-05 18:45 59.93285 15.60033 26359 ft 479 kts 111°
2026-05-05 18:45 59.92353 15.66527 26594 ft 480 kts 112°
2026-05-05 18:45 59.91435 15.72948 26808 ft 481 kts 111°
2026-05-05 18:46 59.90488 15.79430 27031 ft 481 kts 112°
2026-05-05 18:46 59.89557 15.85928 27280 ft 481 kts 112°
2026-05-05 18:46 59.88596 15.92450 27509 ft 482 kts 112°
2026-05-05 18:46 59.87648 15.98893 27700 ft 483 kts 112°
2026-05-05 18:47 59.86696 16.05389 27891 ft 485 kts 112°
2026-05-05 18:47 59.85952 16.10494 28025 ft 486 kts 111°
2026-05-05 18:47 59.84978 16.17005 28194 ft 488 kts 112°
2026-05-05 18:47 59.84017 16.23533 28392 ft 489 kts 112°
2026-05-05 18:48 59.83049 16.30065 28606 ft 490 kts 112°
2026-05-05 18:48 59.82070 16.36583 28815 ft 491 kts 112°
2026-05-05 18:48 59.81091 16.43140 29120 ft 490 kts 111°
2026-05-05 18:48 59.80116 16.49575 29380 ft 490 kts 111°
2026-05-05 18:49 59.79126 16.56117 29561 ft 492 kts 111°
2026-05-05 18:49 59.78137 16.62676 29779 ft 493 kts 112°
2026-05-05 18:49 59.77135 16.69249 29967 ft 494 kts 113°
2026-05-05 18:49 59.76130 16.75819 30137 ft 496 kts 112°
2026-05-05 18:50 59.75135 16.82355 30326 ft 497 kts 113°
2026-05-05 18:50 59.74111 16.88938 30507 ft 498 kts 113°
2026-05-05 18:50 59.73078 16.95586 30688 ft 500 kts 112°
2026-05-05 18:50 59.72060 17.02204 30851 ft 502 kts 113°
2026-05-05 18:51 59.71028 17.08836 31044 ft 502 kts 113°
2026-05-05 18:51 59.69966 17.15555 31227 ft 503 kts 113°
2026-05-05 18:51 59.68910 17.22168 31417 ft 504 kts 112°
2026-05-05 18:51 59.67869 17.28813 31638 ft 504 kts 112°
2026-05-05 18:52 59.66830 17.35436 31917 ft 503 kts 112°
2026-05-05 18:52 59.65770 17.42113 32148 ft 502 kts 113°
2026-05-05 18:52 59.64724 17.48705 32378 ft 502 kts 112°
2026-05-05 18:52 59.63664 17.55344 32605 ft 501 kts 112°
2026-05-05 18:53 59.62606 17.61902 32847 ft 501 kts 112°
2026-05-05 18:53 59.61541 17.68505 33084 ft 501 kts 112°
2026-05-05 18:53 59.60469 17.75184 33301 ft 501 kts 113°
2026-05-05 18:53 59.59442 17.81513 33485 ft 501 kts 112°
2026-05-05 18:54 59.58352 17.88170 33711 ft 501 kts 113°
2026-05-05 18:54 59.57281 17.94711 33930 ft 501 kts 113°
2026-05-05 18:54 59.56175 18.01297 34172 ft 501 kts 113°
2026-05-05 18:54 59.55098 18.07851 34422 ft 501 kts 112°
2026-05-05 18:55 59.54041 18.14453 34634 ft 502 kts 111°
2026-05-05 18:55 59.53001 18.21144 34860 ft 502 kts 111°
2026-05-05 18:55 59.51900 18.27688 35126 ft 501 kts 113°
2026-05-05 18:55 59.50775 18.34235 35367 ft 502 kts 112°
2026-05-05 18:56 59.49685 18.40833 35604 ft 502 kts 112°
2026-05-05 18:56 59.48561 18.47447 35846 ft 502 kts 112°
2026-05-05 18:56 59.47461 18.53932 36083 ft 502 kts 111°
2026-05-05 18:56 59.46355 18.60527 36334 ft 503 kts 111°
2026-05-05 18:57 59.45236 18.67141 36557 ft 504 kts 113°
2026-05-05 18:57 59.44132 18.73686 36720 ft 507 kts 112°
2026-05-05 18:57 59.42990 18.80334 36872 ft 511 kts 113°
2026-05-05 18:57 59.41858 18.86958 36896 ft 517 kts 112°
2026-05-05 18:58 59.39504 19.00662 36945 ft 529 kts 112°
2026-05-05 18:58 59.38003 19.09299 36912 ft 534 kts 112°
2026-05-05 18:59 59.34695 19.28235 36890 ft 530 kts 112°
2026-05-05 18:59 59.33092 19.37361 36862 ft 525 kts 113°
2026-05-05 19:00 59.30717 19.50715 36882 ft 525 kts 113°
2026-05-05 19:00 59.27853 19.66763 36894 ft 529 kts 114°
2026-05-05 19:01 59.25849 19.77882 36888 ft 530 kts 114°
2026-05-05 19:01 59.23387 19.91513 36860 ft 528 kts 114°
2026-05-05 19:02 59.20918 20.04986 36880 ft 527 kts 114°
2026-05-05 19:02 59.18424 20.18541 36875 ft 526 kts 114°
2026-05-05 19:03 59.15938 20.32031 36884 ft 527 kts 114°
2026-05-05 19:03 59.13421 20.45542 36893 ft 528 kts 114°
2026-05-05 19:04 59.10902 20.58954 36898 ft 523 kts 114°
2026-05-05 19:04 59.08467 20.72281 36841 ft 515 kts 109°
2026-05-05 19:05 59.06710 20.85760 36843 ft 507 kts 116°
2026-05-05 19:05 59.04313 20.98844 36891 ft 514 kts 108°
2026-05-05 19:06 59.02071 21.12114 36931 ft 517 kts 112°
2026-05-05 19:06 58.99908 21.25481 36919 ft 518 kts 111°
2026-05-05 19:07 58.98142 21.36642 36891 ft 516 kts 111°
2026-05-05 19:07 58.95663 21.52284 36881 ft 515 kts 110°
2026-05-05 19:08 58.93543 21.65610 36891 ft 514 kts 111°
2026-05-05 19:08 58.91421 21.78927 36888 ft 513 kts 111°
2026-05-05 19:09 58.89279 21.92163 36893 ft 513 kts 111°
2026-05-05 19:09 58.87123 22.05444 36890 ft 512 kts 111°
2026-05-05 19:10 58.84971 22.18667 36893 ft 513 kts 111°
2026-05-05 19:10 58.82808 22.31822 36877 ft 513 kts 111°
2026-05-05 19:11 58.80632 22.44956 36880 ft 512 kts 111°
2026-05-05 19:11 58.78432 22.58136 36875 ft 511 kts 111°
2026-05-05 19:12 58.76228 22.71244 36866 ft 510 kts 112°
2026-05-05 19:12 58.74009 22.84314 36872 ft 509 kts 112°
2026-05-05 19:13 58.71787 22.97326 36874 ft 509 kts 112°
2026-05-05 19:13 58.69569 23.10229 36875 ft 509 kts 112°
2026-05-05 19:14 58.67314 23.23235 36875 ft 509 kts 112°
2026-05-05 19:14 58.65059 23.36178 36890 ft 508 kts 112°
2026-05-05 19:15 58.62786 23.49134 36889 ft 507 kts 112°
2026-05-05 19:15 58.60510 23.62005 36901 ft 506 kts 112°
2026-05-05 19:16 58.58221 23.74854 36887 ft 506 kts 113°
2026-05-05 19:16 58.55911 23.87745 36891 ft 505 kts 113°
2026-05-05 19:17 58.53606 24.00539 36643 ft 504 kts 113°
2026-05-05 19:17 58.52430 24.07002 36959 ft 503 kts 113°
2026-05-05 19:17 58.51273 24.13337 36985 ft 504 kts 113°
2026-05-05 19:18 58.48926 24.26164 36939 ft 507 kts 113°
2026-05-05 19:18 58.46579 24.38901 36891 ft 504 kts 113°
2026-05-05 19:19 58.45398 24.45300 36617 ft 502 kts 113°
2026-05-05 19:19 58.44203 24.51713 36664 ft 500 kts 113°
2026-05-05 19:19 58.41842 24.64373 36839 ft 502 kts 113°
2026-05-05 19:20 58.39453 24.77082 36892 ft 506 kts 114°
2026-05-05 19:20 58.37026 24.89904 36887 ft 507 kts 114°
2026-05-05 19:21 58.34615 25.02561 36875 ft 504 kts 114°
2026-05-05 19:21 58.32191 25.15189 36875 ft 502 kts 114°
2026-05-05 19:22 58.29758 25.27800 36869 ft 503 kts 114°
2026-05-05 19:22 58.27323 25.40363 36865 ft 503 kts 114°
2026-05-05 19:23 58.24871 25.52899 36867 ft 503 kts 114°
2026-05-05 19:23 58.22393 25.65487 36853 ft 503 kts 115°
2026-05-05 19:24 58.19902 25.78079 36849 ft 503 kts 115°
2026-05-05 19:24 58.17421 25.90515 36847 ft 502 kts 115°
2026-05-05 19:25 58.14907 26.03068 36842 ft 501 kts 115°
2026-05-05 19:25 58.12403 26.15442 36841 ft 501 kts 115°
2026-05-05 19:26 58.09890 26.27817 36853 ft 503 kts 115°
2026-05-05 19:26 58.07359 26.40221 36848 ft 504 kts 115°
2026-05-05 19:27 58.04813 26.52611 36849 ft 504 kts 115°
2026-05-05 19:27 58.02242 26.65032 36849 ft 503 kts 116°
2026-05-05 19:28 57.99662 26.77451 36835 ft 501 kts 116°
2026-05-05 19:28 57.97083 26.89761 36860 ft 500 kts 116°
2026-05-05 19:29 57.94492 27.02039 36847 ft 499 kts 116°
2026-05-05 19:29 57.91911 27.14231 36819 ft 499 kts 117°
2026-05-05 19:30 57.89281 27.26500 36814 ft 500 kts 116°
2026-05-05 19:30 57.86688 27.38839 36816 ft 502 kts 115°
2026-05-05 19:31 57.84125 27.51092 36819 ft 500 kts 119°
2026-05-05 19:31 57.80676 27.62457 36840 ft 491 kts 129°
2026-05-05 19:32 57.77191 27.73800 36833 ft 494 kts 126°
2026-05-05 19:32 57.73720 27.84989 36848 ft 494 kts 126°
2026-05-05 19:33 57.70209 27.96200 36829 ft 494 kts 126°
2026-05-05 19:33 57.66743 28.07449 36824 ft 494 kts 125°
2026-05-05 19:34 57.63216 28.18488 36837 ft 493 kts 126°
2026-05-05 19:35 57.57963 28.35179 36831 ft 495 kts 125°
2026-05-05 19:35 57.54386 28.46243 36819 ft 495 kts 126°
2026-05-05 19:36 57.50814 28.57365 36817 ft 493 kts 126°
2026-05-05 19:36 57.47242 28.68445 36810 ft 493 kts 127°
2026-05-05 19:37 57.43698 28.79400 36803 ft 491 kts 127°
2026-05-05 19:37 57.40134 28.90382 36813 ft 493 kts 127°
2026-05-05 19:38 57.36551 29.01342 36814 ft 494 kts 127°
2026-05-05 19:38 57.32931 29.12377 36819 ft 494 kts 127°
2026-05-05 19:39 57.29357 29.23251 36816 ft 491 kts 127°
2026-05-05 19:39 57.25746 29.34173 36819 ft 490 kts 127°
2026-05-05 19:40 57.22156 29.44959 36817 ft 490 kts 127°
2026-05-05 19:40 57.18551 29.55754 36818 ft 491 kts 127°
2026-05-05 19:41 57.14942 29.66520 36818 ft 491 kts 128°
2026-05-05 19:41 57.11310 29.77304 36811 ft 491 kts 128°
2026-05-05 19:42 57.07671 29.88010 36821 ft 489 kts 128°
2026-05-05 19:42 57.04029 29.98751 36807 ft 489 kts 128°
2026-05-05 19:43 57.00443 30.09449 36819 ft 488 kts 129°
2026-05-05 19:43 56.96829 30.19861 36824 ft 489 kts 128°
2026-05-05 19:44 56.93103 30.30631 36846 ft 489 kts 128°
2026-05-05 19:44 56.89441 30.41226 36810 ft 488 kts 128°
2026-05-05 19:45 56.85795 30.51663 36833 ft 487 kts 128°
2026-05-05 19:45 56.82105 30.62227 36808 ft 488 kts 127°
2026-05-05 19:46 56.78422 30.72744 36805 ft 484 kts 131°
2026-05-05 19:46 56.74383 30.82537 36833 ft 482 kts 132°
2026-05-05 19:47 56.70344 30.92449 36816 ft 483 kts 133°
2026-05-05 19:47 56.66363 31.02223 36831 ft 483 kts 133°
2026-05-05 19:48 56.62381 31.12147 36823 ft 481 kts 132°
2026-05-05 19:48 56.58353 31.21888 36818 ft 481 kts 132°
2026-05-05 19:49 56.54326 31.31665 36821 ft 481 kts 133°
2026-05-05 19:49 56.50268 31.41502 36830 ft 482 kts 132°
2026-05-05 19:50 56.46241 31.51396 36827 ft 483 kts 131°
2026-05-05 19:50 56.42183 31.61055 36823 ft 481 kts 131°
2026-05-05 19:51 56.38104 31.70812 36814 ft 480 kts 133°
2026-05-05 19:51 56.34011 31.80580 36837 ft 491 kts 132°
2026-05-05 19:52 56.29780 31.90647 36876 ft 504 kts 132°
2026-05-05 19:52 56.25512 32.00790 36847 ft 508 kts 132°
2026-05-05 19:53 56.21169 32.11023 36818 ft 505 kts 132°
2026-05-05 19:53 56.16887 32.21102 36803 ft 501 kts 132°
2026-05-05 19:54 56.12614 32.31082 36809 ft 502 kts 132°
2026-05-05 19:54 56.08298 32.41156 36826 ft 512 kts 132°
2026-05-05 19:55 56.03867 32.51425 36834 ft 518 kts 131°
2026-05-05 19:55 55.99448 32.61677 36823 ft 516 kts 131°
2026-05-05 19:56 55.94995 32.71915 36813 ft 511 kts 132°
2026-05-05 19:56 55.90594 32.81976 36821 ft 509 kts 132°
2026-05-05 19:57 55.86163 32.92149 36821 ft 509 kts 131°
2026-05-05 19:57 55.81587 33.01844 36827 ft 510 kts 134°
2026-05-05 19:58 55.76962 33.11508 36841 ft 511 kts 134°
2026-05-05 19:58 55.72300 33.21246 36844 ft 511 kts 134°
2026-05-05 19:59 55.67656 33.30869 36840 ft 510 kts 134°
2026-05-05 19:59 55.63020 33.40483 36839 ft 509 kts 135°
2026-05-05 20:00 55.58315 33.49994 36838 ft 509 kts 134°
2026-05-05 20:00 55.53596 33.59548 36848 ft 508 kts 134°
2026-05-05 20:01 55.48930 33.69114 36837 ft 509 kts 134°
2026-05-05 20:01 55.44302 33.78687 36839 ft 508 kts 134°
2026-05-05 20:02 55.39691 33.88265 36843 ft 507 kts 134°
2026-05-05 20:02 55.35127 33.97737 36842 ft 506 kts 134°
2026-05-05 20:03 55.30558 34.07249 36820 ft 507 kts 130°
2026-05-05 20:03 55.28654 34.12566 36802 ft 511 kts 118°
2026-05-05 20:03 55.27405 34.18446 36811 ft 515 kts 106°
2026-05-05 20:03 55.26848 34.24738 36821 ft 518 kts 94°
2026-05-05 20:04 55.27015 34.31053 36823 ft 521 kts 82°
2026-05-05 20:04 55.28881 34.43530 36853 ft 523 kts 77°
2026-05-05 20:05 55.30277 34.56190 36863 ft 524 kts 81°
2026-05-05 20:05 55.30872 34.62531 36749 ft 525 kts 81°
2026-05-05 20:05 55.31502 34.68888 36453 ft 528 kts 81°
2026-05-05 20:05 55.32119 34.75346 36070 ft 528 kts 82°
2026-05-05 20:06 55.32718 34.81789 35642 ft 523 kts 83°
2026-05-05 20:06 55.33234 34.88048 35169 ft 515 kts 83°
2026-05-05 20:06 55.33770 34.94340 34595 ft 518 kts 82°
2026-05-05 20:06 55.34296 35.00676 33980 ft 520 kts 83°
2026-05-05 20:07 55.34822 35.07066 33384 ft 522 kts 82°
2026-05-05 20:07 55.35355 35.13373 32812 ft 523 kts 82°
2026-05-05 20:07 55.35873 35.19760 32243 ft 524 kts 82°
2026-05-05 20:07 55.36402 35.26213 31677 ft 525 kts 82°
2026-05-05 20:08 55.36923 35.32567 31127 ft 525 kts 82°
2026-05-05 20:08 55.37448 35.39060 30572 ft 525 kts 82°
2026-05-05 20:08 55.37967 35.45446 30019 ft 525 kts 82°
2026-05-05 20:08 55.38488 35.51863 29466 ft 525 kts 82°
2026-05-05 20:09 55.38744 35.58354 28876 ft 525 kts 91°
2026-05-05 20:09 55.38326 35.64620 28030 ft 514 kts 102°
2026-05-05 20:09 55.37510 35.70897 27250 ft 503 kts 104°
2026-05-05 20:09 55.36780 35.76926 26553 ft 494 kts 103°
2026-05-05 20:10 55.36061 35.82789 25921 ft 481 kts 103°
2026-05-05 20:10 55.35402 35.88203 25305 ft 454 kts 103°
2026-05-05 20:10 55.34759 35.93500 24668 ft 429 kts 103°
2026-05-05 20:10 55.34180 35.98540 24169 ft 401 kts 102°
2026-05-05 20:11 55.33620 36.03318 23948 ft 391 kts 103°
2026-05-05 20:11 55.33144 36.07323 24051 ft 396 kts 103°
2026-05-05 20:11 55.32579 36.12151 24110 ft 405 kts 103°
2026-05-05 20:11 55.31987 36.17143 24316 ft 413 kts 103°
2026-05-05 20:12 55.31393 36.22152 24419 ft 422 kts 103°
2026-05-05 20:12 55.30791 36.27244 24385 ft 423 kts 102°
2026-05-05 20:12 55.30199 36.32259 24228 ft 415 kts 102°
2026-05-05 20:12 55.29621 36.37166 24041 ft 400 kts 102°
2026-05-05 20:13 55.29034 36.41935 23843 ft 400 kts 104°
2026-05-05 20:13 55.28399 36.46756 23438 ft 408 kts 103°
2026-05-05 20:13 55.27773 36.51684 22954 ft 411 kts 103°
2026-05-05 20:13 55.27145 36.56543 22422 ft 405 kts 103°
2026-05-05 20:14 55.26527 36.61391 21889 ft 394 kts 103°
2026-05-05 20:14 55.25955 36.66056 21500 ft 384 kts 103°
2026-05-05 20:14 55.25369 36.70855 21096 ft 389 kts 103°
2026-05-05 20:14 55.24795 36.75505 20682 ft 384 kts 103°
2026-05-05 20:15 55.24230 36.80099 20297 ft 379 kts 103°
2026-05-05 20:15 55.23667 36.84699 19966 ft 378 kts 103°
2026-05-05 20:15 55.23093 36.89053 19620 ft 377 kts 105°
2026-05-05 20:15 55.22576 36.92870 19259 ft 374 kts 104°
2026-05-05 20:16 55.22115 36.96418 18966 ft 367 kts 104°
2026-05-05 20:16 55.21533 37.00824 18787 ft 371 kts 105°
2026-05-05 20:16 55.20960 37.05282 18773 ft 373 kts 104°
2026-05-05 20:16 55.20379 37.09781 18798 ft 376 kts 104°
2026-05-05 20:17 55.19796 37.14275 18831 ft 377 kts 104°
2026-05-05 20:17 55.19269 37.18829 18800 ft 381 kts 97°
2026-05-05 20:17 55.19294 37.23432 18625 ft 384 kts 82°
2026-05-05 20:17 55.19988 37.27969 18372 ft 378 kts 70°
2026-05-05 20:18 55.20869 37.32234 18096 ft 369 kts 71°
2026-05-05 20:18 55.21673 37.36537 17969 ft 370 kts 71°
2026-05-05 20:18 55.22513 37.40836 17820 ft 375 kts 70°
2026-05-05 20:18 55.23376 37.45217 17518 ft 381 kts 71°
2026-05-05 20:19 55.24228 37.49604 17140 ft 379 kts 70°
2026-05-05 20:19 55.25073 37.53943 16707 ft 371 kts 70°
2026-05-05 20:19 55.25887 37.58150 16293 ft 361 kts 70°
2026-05-05 20:19 55.26705 37.62341 15988 ft 364 kts 68°
2026-05-05 20:20 55.27905 37.66278 15792 ft 362 kts 51°
2026-05-05 20:20 55.29723 37.69536 15720 ft 359 kts 37°
2026-05-05 20:20 55.31676 37.72316 15752 ft 360 kts 38°
2026-05-05 20:20 55.33616 37.75088 15659 ft 363 kts 31°
2026-05-05 20:21 55.35860 37.77075 15224 ft 366 kts 15°
2026-05-05 20:21 55.38353 37.77923 14654 ft 359 kts 359°
2026-05-05 20:21 55.40762 37.77542 14005 ft 347 kts 342°
2026-05-05 20:21 55.42954 37.76007 13293 ft 334 kts 325°
2026-05-05 20:22 55.44620 37.73731 12619 ft 322 kts 313°
2026-05-05 20:22 55.46243 37.71035 11876 ft 317 kts 314°
2026-05-05 20:22 55.47879 37.68403 11119 ft 312 kts 314°
2026-05-05 20:22 55.49449 37.65848 10390 ft 308 kts 313°
2026-05-05 20:23 55.51026 37.63340 9871 ft 297 kts 318°
2026-05-05 20:23 55.52831 37.61607 9518 ft 288 kts 338°
2026-05-05 20:23 55.54758 37.61112 9144 ft 275 kts 358°
2026-05-05 20:23 55.56630 37.61802 8442 ft 282 kts 21°
2026-05-05 20:24 55.58316 37.63705 7828 ft 294 kts 42°
2026-05-05 20:24 55.59577 37.66568 7228 ft 296 kts 63°
2026-05-05 20:24 55.60226 37.69978 6607 ft 292 kts 84°
2026-05-05 20:24 55.60192 37.73494 5988 ft 284 kts 105°
2026-05-05 20:25 55.59499 37.76634 5466 ft 263 kts 128°
2026-05-05 20:25 55.58324 37.78793 5264 ft 223 kts 153°
2026-05-05 20:25 55.57198 37.79651 5061 ft 194 kts 176°
2026-05-05 20:25 55.55903 37.79583 4516 ft 189 kts 204°
2026-05-05 20:26 55.54733 37.78587 3940 ft 188 kts 213°
2026-05-05 20:26 55.53590 37.77504 3389 ft 184 kts 210°
2026-05-05 20:26 55.52480 37.76572 2956 ft 171 kts 209°
2026-05-05 20:26 55.51468 37.75735 2611 ft 158 kts 202°
2026-05-05 20:27 55.50359 37.75641 2323 ft 163 kts 167°
2026-05-05 20:27 55.49430 37.76695 2284 ft 160 kts 131°
2026-05-05 20:27 55.48839 37.78327 2165 ft 157 kts 125°
2026-05-05 20:27 55.48184 37.79840 1918 ft 151 kts 139°
2026-05-05 20:28 55.47384 37.80968 1810 ft 147 kts 148°
2026-05-05 20:28 55.46520 37.81966 1737 ft 148 kts 152°
2026-05-05 20:28 55.45653 37.82964 1472 ft 147 kts 150°
2026-05-05 20:28 55.44810 37.83990 1247 ft 144 kts 148°
2026-05-05 20:29 55.43986 37.84994 1105 ft 143 kts 148°
2026-05-05 20:29 55.43150 37.85988 897 ft 145 kts 147°
2026-05-05 20:29 55.42315 37.86977 698 ft 147 kts 147°
2026-05-05 20:29 55.41492 37.87965 603 ft 135 kts 146°
2026-05-05 20:30 55.40843 37.88732 602 ft 80 kts 146°
2026-05-05 20:30 55.40529 37.89120 602 ft 33 kts 140°
2026-05-05 20:30 55.40438 37.89316 602 ft 7 kts 115°
2026-05-05 20:30 55.40434 37.89330 602 ft 0 kts 116°
2026-05-05 20:31 55.40432 37.89337 602 ft 2 kts 116°